Regional Weather Roundup
Issued by NWS

Home | Current Version | Previous Version | Text Only | Print | Product List | Glossary Off
Versions: 1 2 3 4 5 6 7 8 9 10 11 12 13 14 15 16 17 18 19 20 21 22 23 24 25 26 27

000
ASUS45 KBOU 191807
RWRCO

WEATHER ROUNDUP FOR COLORADO
NATIONAL WEATHER SERVICE DENVER/BOULDER CO
1100 AM MST THU JAN 19 2017

NOTE: "FAIR" INDICATES FEW OR NO CLOUDS BELOW 12000 FEET WITH NO
SIGNIFICANT WEATHER AND/OR OBSTRUCTIONS TO VISIBILITY.

COZ001>005-013-030-031-191900-
...NORTHWEST COLORADO...

CITY           SKY/WX    TMP DP  RH WIND       PRES   REMARKS
CRAIG          CLOUDY    18  11  74 CALM      29.83F
HAYDEN         FAIR      18   9  68 SE5       29.82S WCI  11
MEEKER         CLOUDY    29  18  63 CALM      29.81F
MOUNT WERNER   NOT AVBL
STEAMBOAT SPGS FAIR      14  11  87 CALM      29.82S
WALDEN           N/A    N/A N/A N/A CALM      29.79S
$$

COZ006>008-011-191900-
...WEST CENTRAL VALLEYS...

CITY           SKY/WX    TMP DP  RH WIND       PRES   REMARKS
GRAND JUNCTION CLOUDY    36  26  67 SE15      29.84F
MONTROSE       FAIR      35  21  56 SE3       29.88F
EAGLE          MOSUNNY   21  12  68 CALM      29.91F
RIFLE          FAIR      31  22  69 CALM      29.86F
DELTA          FAIR      38  24  58 NE5       29.88F
NUCLA          CLOUDY    36  27  69 N6        29.89F
$$

COZ017>023-064>068-191900-
...SOUTHWEST COLORADO...

CITY           SKY/WX    TMP DP  RH WIND       PRES   REMARKS
DURANGO        CLOUDY    28  26  92 SE8       29.92F WCI  20
CORTEZ         CLOUDY    37  28  70 CALM      29.90F
PAGOSA SPRINGS PTSUNNY   31  22  68 SW3       29.92F
TELLURIDE      FAIR      29  14  54 CALM      29.87F
WOLF CREEK PAS   N/A     16  16 100 SW12      29.92F WCI   3
$$

COZ009-010-012-014-032>034-037-058>063-191900-
...CENTRAL COLORADO...

CITY           SKY/WX    TMP DP  RH WIND       PRES   REMARKS
ASPEN          FAIR      27  14  58 N5        29.80F WCI  22
BUENA VISTA    FAIR      23  13  66 NW3       29.76F
COPPER MTN     NOT AVBL
BERTHOUD PASS  NOT AVBL
COTTONWOOD PAS FAIR      37   5  25 N8G18     29.76F
GUNNISON       FLURRIES   7   4  87 E5        29.95F WCI  -2
KREMMLING      LGT SNOW  12   7  79 CALM      29.90F
LEADVILLE      FAIR      37   3  24 VRB6      29.76F
MONARCH PASS     N/A     18  10  73 MISG      29.91F HAZE
SALIDA         FAIR      39  16  40 SW15G25   29.82S
SUNLIGHT       FAIR      21  16  79 SW20G25   29.85F WCI   6
WILKERSON PASS FAIR      36   0  21 W8        29.81S
$$

COZ069>075-191900-
...SAN LUIS VALLEY/SANGRE DE CRISTO MOUNTAINS...

CITY           SKY/WX    TMP DP  RH WIND       PRES   REMARKS
ALAMOSA        CLOUDY    21  19  92 S5        29.89F WCI  15
LA VETA PASS   FOG       18  14  86 NE37G48   29.75S VSB 3/4 WCI  -4
SAGUACHE       CLOUDY    21  19  93 S5        29.90F WCI  15
$$

COZ035-036-038>040-191900-
...NORTHERN COLORADO FRONT RANGE...

CITY           SKY/WX    TMP DP  RH WIND       PRES   REMARKS
DENVER INTL AP FAIR      49  23  36 SE8       29.59F
DMNS CITY PARK   N/A     51  14  23 E10       29.58F
AURORA         MOSUNNY   50  18  28 S6        29.60F
FRONT RANGE AP NOT AVBL
ERIE MUNI ARPT FAIR      43  22  44 N7        29.60F
BOULDER MUN AP FAIR      45  21  39 N6        29.59F
CENTENNIAL     FAIR      45  21  38 E5        29.60F
BROOMFIELD     MOSUNNY   45  19  36 CALM      29.60F
FORT COLLINS   FAIR      41  25  52 CALM      29.61F
LONGMONT       FAIR      47  26  43 CALM      29.62S
$$

COZ041-046-047-076>085-087-088-191900-
...PIKES PEAK/PALMER DIVIDE AND SOUTHERN FOOTHILLS...

CITY           SKY/WX    TMP DP  RH WIND       PRES   REMARKS
COLO. SPRINGS  FAIR      50  11  20 S9        29.64F
A. F. ACADEMY  FAIR      50  10  19 S6        29.62F
SCHRIEVER AFB  NOT AVBL
ELLICOTT       FAIR     N/A N/A N/A CALM      29.62F
FALCON         FAIR      50   7  17 S6        29.65F
FORT CARSON    SUNNY     50  14  23 SW6       29.63F
LIMON          FAIR      49  19  30 W5        29.61F
MONUMENT HILL  FAIR      46  14  27 S3        29.65F
TRINIDAD       FAIR      37  22  54 W7        29.66S
$$

COZ042>045-048>051-090-091-191900-
...NORTHEAST COLORADO...

CITY           SKY/WX    TMP DP  RH WIND       PRES   REMARKS
GREELEY ARPT   FAIR      37  25  61 W3        29.61F
AKRON          FAIR      39  25  57 W10       29.60F
BURLINGTON     FAIR      42  29  59 NW7       29.60F
WRAY           NOT AVBL
STERLING       FAIR      34  30  86 S6        29.60F WCI  29
HOLYOKE        FAIR      45  30  57 CALM      29.61F
FORT MORGAN    FAIR      38  28  67 SW5       29.61F
$$

COZ086-089-092>099-191900-
...SOUTHEAST COLORADO...

CITY           SKY/WX    TMP DP  RH WIND       PRES   REMARKS
PUEBLO         FAIR      45  28  51 CALM      29.62F
LA JUNTA       FAIR      37  27  67 W14       29.61F
LAMAR          NOT AVBL
SPRINGFIELD      N/A     46  24  42 NW15      29.59F
$$




USA.gov is the U.S. government's official web portal to all federal, state and local government web resources and services.